Location: Zapote
(9.9191°N, 84.0597°W)
Time: 04:13:44
(UTC-06:00)

N. Korean satellite - Pass Details

Date: 30 January 2021
Orbit: 451 x 503 km, 97.2° (Epoch: 27 February)

Event Time Altitude Azimuth Distance (km) Brightness Sun altitude
Rises 04:30:04 0° 19° (NNE) 2,446 10.2 -21.8°
Reaches altitude 10° 04:32:08 10° 25° (NNE) 1,574 9.2 -21.3°
Maximum altitude 04:35:24 48° 100° (E) 593 7.4 -20.5°
Drops below altitude 10° 04:38:41 10° 176° (S) 1,582 9.4 -19.7°
Sets 04:40:45 0° 182° (S) 2,459 10.3 -19.2°
